RH
13 12 12 26 43 50 50 46 45 40 42 40 38 36 36 38 36 35 35 39 34 37 46 54 54 52 50 47 43 45 48 46 43 47 49 49 46 43 43 48 52 65 74
19 16 18 30 42 47 49 47 44 42 43 43 42 41 40 39 39 41 34 32 32 38 38 38 48 53 54 52 50 49 52 49 45 49 51 57 49 43 40 40 40 42 54
27 19 27 34 41 46 48 46 46 45 44 42 41 37 36 40 36 35 37 37 45 50 53 54 52 50 62 61 55 54 58 58 52 48 51 58 57 48 39 37 35 39 43
32 29 34 37 40 43 45 50 51 49 44 42 40 39 41 41 37 38 38 49 51 53 54 57 57 58 58 68 60 53 56 57 60 54 44 51 50 61 62 44 39 36 35
36 37 40 40 37 42 48 52 52 52 48 47 40 41 42 40 37 37 52 55 54 53 59 62 65 68 74 74 65 57 57 54 57 58 57 55 54 49 59 66 56 45 40
31 33 35 38 38 41 47 54 55 54 49 47 41 41 44 43 42 52 59 60 58 61 63 62 61 63 67 76 73 61 58 58 59 58 56 56 59 56 57 59 58 58 50
29 31 32 35 38 41 46 49 51 53 47 46 39 39 43 43 48 56 60 65 62 67 70 67 64 65 66 71 73 68 68 68 67 64 59 56 55 56 57 61 64 64 55
25 28 31 34 36 37 41 44 47 49 46 44 39 40 39 41 45 54 60 64 62 66 67 68 69 68 64 63 65 68 66 67 70 68 65 63 60 60 62 65 70 75 66
33 32 34 35 34 38 35 38 44 46 45 44 38 36 36 38 43 53 59 63 62 62 65 70 72 70 69 70 70 62 59 60 61 62 62 59 57 57 57 59 62 73 83
28 29 30 32 34 35 38 36 42 47 44 42 34 30 33 36 39 47 56 61 62 65 67 70 74 73 70 68 71 73 68 62 58 58 60 57 56 56 60 66 66 70 78
31 30 30 29 29 31 35 35 40 48 47 41 33 32 33 34 35 40 48 56 61 65 69 70 73 72 72 69 73 76 76 76 69 60 58 58 56 61 61 68 70 74 76
37 36 33 32 34 37 39 39 44 50 48 40 31 31 32 35 35 35 38 48 58 62 65 68 69 70 70 69 73 77 77 80 80 78 78 74 60 68 64 68 72 76 71
35 34 35 38 40 41 40 41 45 53 52 44 36 34 33 34 34 33 34 39 50 57 60 62 65 65 66 68 70 78 76 76 77 76 76 79 79 79 77 82 83 84 77
33 35 38 39 42 42 42 43 49 54 56 50 46 44 39 37 35 34 36 39 41 48 51 57 58 61 60 61 64 68 72 72 70 71 71 72 76 81 84 85 87 86 87
32 34 37 39 42 42 43 44 53 59 59 54 51 48 43 41 40 39 40 42 44 45 49 52 51 49 48 45 68 70 74 73 72 72 71 69 72 84 85 83 90 91 93
30 33 33 32 35 37 42 43 52 60 59 62 59 50 45 43 44 42 42 44 46 46 50 52 52 51 45 57 70 74 74 69 72 79 76 71 78 75 82 91 94 95 96
32 34 34 33 32 38 38 44 47 54 59 63 61 54 49 47 48 43 43 46 49 49 54 54 54 54 54 58 72 76 72 77 85 89 90 82 72 84 80 84 88 88 94
34 34 33 32 30 30 28 32 39 46 56 61 58 53 54 52 52 51 52 54 54 58 60 60 59 60 54 60 71 76 70 76 85 86 87 86 85 83 87 86 82 83 90
33 33 32 32 31 32 30 33 39 44 47 47 47 51 53 54 54 57 58 58 61 65 65 62 64 62 62 63 72 72 71 76 84 84 84 86 85 85 86 86 86 83 97
34 35 34 35 35 33 32 35 40 44 45 45 45 45 50 54 52 53 55 56 58 60 61 81 90 83 74 68 67 70 70 81 83 81 81 82 84 85 86 87 91 97 96
38 37 38 38 38 37 39 45 46 50 48 50 51 54 52 53 51 50 49 54 58 63 64 61 60 65 71 65 66 71 70 73 82 84 83 80 80 81 84 87 90 94 92
40 41 40 39 40 43 47 54 58 58 56 59 61 62 58 52 47 50 46 46 46 48 47 45 48 50 51 59 65 67 71 72 78 84 81 79 73 74 78 82 83 85 86
38 37 39 40 38 39 41 53 54 51 58 60 62 61 61 56 53 48 47 46 45 48 46 47 50 49 50 53 59 67 67 71 73 67 71 75 73 70 68 70 70 75 89
40 40 42 42 41 37 38 37 38 43 48 55 57 58 60 58 52 53 48 46 47 47 50 51 52 53 53 55 54 60 64 64 65 65 70 66 71 69 68 67 70 74 78
38 40 42 40 36 33 35 35 36 37 48 52 54 58 61 59 59 55 48 47 45 51 50 52 53 57 61 57 58 67 66 68 67 71 72 68 66 67 71 74 74 79 81
35 34 34 35 37 37 37 39 39 40 44 54 58 59 58 56 61 56 53 64 65 64 66 64 62 62 65 67 74 74 71 71 73 74 69 66 72 76 75 76 78 80 78
Wind_Speed
17 16 9 8 7 7 5 4 3 3 4 4 5 5 5 6 6 7 10 9 10 11 10 8 10 9 9 10 11 10 10 9 9 10 9 9 12 13 11 10 10 12 13
14 12 4 8 9 8 6 4 4 3 3 4 5 5 6 5 7 7 8 10 10 11 11 11 10 11 9 11 11 10 8 9 8 8 8 10 9 10 12 13 13 16 11
12 10 7 8 7 6 5 4 4 4 4 4 5 5 6 5 5 6 7 8 10 11 11 12 11 10 8 8 10 9 9 8 8 10 7 6 7 7 6 8 9 14 12
7 5 3 4 4 5 3 4 5 5 4 4 5 6 6 7 7 7 7 8 10 10 9 10 12 12 7 10 9 8 7 8 8 7 9 10 10 10 9 9 11 11 11
3 1 1 1 2 5 5 5 6 6 5 4 5 5 7 6 7 7 10 9 7 8 9 9 9 9 6 8 11 9 9 8 7 7 7 8 8 11 10 10 8 9 11
3 3 2 3 2 4 6 7 7 7 6 5 5 6 7 8 7 7 7 7 6 6 7 8 7 8 6 7 9 8 9 8 8 8 8 7 7 7 8 9 10 11 9
5 6 5 5 5 5 6 7 8 8 6 6 6 6 7 8 9 8 6 9 5 5 7 7 8 7 8 8 9 9 8 8 8 9 8 8 8 8 8 9 10 10 10
7 8 8 8 8 7 7 7 8 9 6 6 6 6 7 5 6 6 5 6 6 5 7 7 8 9 9 8 9 7 7 7 7 10 9 8 8 8 8 8 9 11 11
9 10 11 11 9 8 8 8 9 9 7 6 6 6 6 7 7 8 6 6 7 6 7 7 8 9 9 10 11 8 9 8 8 9 9 8 8 8 8 8 8 10 13
12 11 11 12 11 12 11 10 8 8 7 6 6 5 6 7 8 8 8 8 8 8 8 8 9 9 8 8 8 8 10 9 7 7 10 9 8 9 7 7 9 9 11
15 14 13 13 12 12 12 11 8 9 8 7 6 6 6 7 8 8 8 8 8 9 9 9 9 9 9 8 8 8 10 10 10 9 10 12 12 8 8 8 9 10 10
14 13 14 13 11 10 9 7 7 8 8 6 6 6 6 7 8 8 9 9 9 8 9 9 9 9 9 9 9 8 7 8 9 10 11 10 8 10 9 7 10 10 11
14 12 11 11 10 9 9 8 7 7 7 6 6 7 7 7 8 8 8 8 9 9 9 8 9 9 9 9 9 7 9 9 10 10 11 11 10 10 8 9 9 9 10
13 12 11 10 9 8 8 8 7 7 7 7 7 7 7 7 7 8 8 8 8 9 9 8 9 9 9 9 8 9 11 11 11 11 13 13 12 11 9 9 9 9 10
13 13 14 12 10 8 7 7 6 6 7 8 8 8 7 6 7 8 8 8 8 8 9 9 9 9 8 6 6 9 11 12 13 13 12 13 14 14 11 9 10 8 6
14 14 14 14 12 10 8 6 6 6 7 7 8 7 7 7 8 7 7 8 9 9 8 9 9 9 7 9 9 11 9 11 12 11 12 11 14 13 16 14 13 11 8
15 17 16 14 12 10 9 9 7 5 7 7 7 8 7 8 8 8 7 8 8 8 8 8 8 9 8 9 12 14 10 10 7 9 8 8 8 11 8 12 14 13 4
19 18 15 14 13 13 13 10 9 7 7 8 8 8 8 8 7 7 7 7 6 7 7 7 7 7 7 9 12 15 11 9 8 6 7 9 9 6 10 11 11 9 1
18 17 15 15 14 14 13 12 9 9 9 9 9 9 8 8 8 8 7 6 6 6 6 7 7 8 7 11 11 12 8 9 7 6 5 7 9 15 16 11 9 9 5
15 17 16 14 14 12 11 11 9 10 11 9 9 9 7 9 9 8 7 6 6 7 6 6 6 9 9 10 10 10 6 7 6 6 5 7 10 16 17 11 8 8 3
16 15 13 13 12 12 10 10 9 12 11 8 8 8 8 9 9 8 7 6 7 6 7 8 7 7 8 8 9 10 6 5 6 5 5 5 13 13 14 13 8 7 5
14 12 11 11 10 10 7 9 11 10 9 8 7 8 8 8 7 9 8 9 8 8 8 8 6 6 6 10 9 8 10 9 6 6 4 5 12 12 11 10 13 12 8
11 10 10 12 10 9 7 10 12 9 8 8 8 9 8 8 8 9 8 6 7 7 6 6 5 5 3 4 10 10 9 10 6 5 7 13 13 10 7 7 9 8 4
11 11 11 11 11 10 9 11 11 10 9 10 10 8 8 9 9 7 7 7 7 7 7 7 7 5 4 5 4 4 4 7 6 7 6 7 11 12 8 5 4 3 3
10 10 11 12 13 13 12 12 12 10 10 10 9 8 7 8 8 9 8 9 9 9 7 6 5 5 5 5 6 6 4 3 5 9 5 5 4 4 4 3 3 3 3
13 11 13 13 15 14 14 12 13 12 11 10 8 8 7 7 7 8 8 17 18 14 17 16 9 5 10 10 9 11 10 11 10 5 5 5 3 4 3 3 3 2 4
Wind_Direction
279 272 231 169 218 230 215 234 278 307 315 319 318 315 317 322 308 323 315 313 323 314 309 298 295 289 282 280 281 280 279 261 254 266 260 262 265 270 270 270 255 234 234
301 283 224 198 213 231 217 240 262 292 312 310 319 310 311 308 307 295 306 317 318 320 311 307 300 296 295 288 283 283 280 277 271 266 272 272 266 253 240 241 246 255 246
306 267 182 212 217 229 235 247 277 283 298 310 306 306 305 297 308 324 313 320 311 312 311 313 308 297 298 289 284 281 280 279 276 267 258 274 256 293 286 267 247 237 241
356 55 168 180 217 254 252 263 270 276 283 301 304 312 306 305 316 304 306 309 319 319 322 318 313 300 296 297 285 280 272 270 271 269 268 267 275 283 288 285 294 297 296
19 13 217 172 313 303 269 263 263 258 265 277 289 298 295 303 304 301 310 313 318 330 334 324 308 306 316 299 292 286 288 284 278 273 277 275 273 267 273 284 278 275 282
340 328 325 301 266 246 256 250 253 256 250 256 271 278 288 297 299 306 309 321 324 329 326 329 312 292 297 313 305 291 282 278 283 291 287 282 278 282 288 287 286 282 281
263 277 268 295 305 289 274 258 252 258 255 264 279 287 288 292 291 303 313 314 311 313 310 326 315 309 298 291 289 282 280 282 278 281 277 276 272 274 278 283 286 285 285
288 280 295 302 302 295 281 271 263 263 257 266 274 276 281 282 291 294 303 296 296 298 310 320 319 309 300 282 272 272 270 265 264 263 265 271 273 280 280 278 285 285 282
327 309 301 294 282 280 290 278 258 253 249 254 263 269 279 284 287 295 291 287 286 284 294 306 293 296 302 309 311 285 276 270 271 271 271 268 269 268 269 274 276 279 284
318 305 297 288 275 273 282 289 268 261 260 255 262 274 287 288 293 295 292 290 295 290 292 294 292 286 293 292 294 296 297 294 271 262 263 269 271 271 269 269 269 268 275
321 313 305 298 293 290 286 289 277 257 252 246 257 270 280 291 293 290 293 296 297 295 290 290 290 290 287 285 290 289 284 283 289 284 278 276 277 275 273 270 271 271 271
318 312 307 301 296 290 285 269 255 244 244 248 261 267 277 278 284 291 297 301 298 295 293 290 291 293 292 294 292 287 293 295 299 300 300 297 290 291 286 283 285 279 274
324 326 322 314 305 296 288 277 260 247 239 235 245 260 267 275 283 291 295 297 297 295 294 292 295 297 297 297 298 299 296 291 282 276 274 276 276 278 286 290 284 288 279
325 329 330 322 307 298 289 286 275 252 238 228 238 246 257 264 274 284 287 287 289 292 298 300 300 299 299 298 293 307 308 301 295 291 282 278 272 268 268 271 278 279 291
324 322 326 324 309 299 294 288 265 256 231 233 238 247 249 252 264 275 282 287 287 288 291 293 293 295 296 293 334 309 303 302 300 294 287 280 273 269 273 270 272 277 283
317 317 314 314 313 300 298 290 271 251 233 235 244 248 245 254 257 262 273 285 287 290 289 288 291 295 294 321 310 302 297 302 301 299 296 294 296 273 263 266 273 266 276
320 318 314 312 304 292 287 285 279 245 232 239 230 240 243 247 245 252 262 265 269 277 278 284 286 287 295 305 310 307 300 294 301 317 300 298 283 284 309 301 286 272 215
318 314 310 311 307 308 299 282 276 258 245 246 242 242 237 242 248 254 258 263 267 275 278 278 280 285 287 301 316 313 305 308 302 310 326 335 324 333 330 313 290 285 40
314 309 309 309 310 306 302 293 278 270 253 250 243 238 232 235 237 238 245 250 262 265 266 277 287 286 286 302 307 318 311 309 309 314 332 338 343 340 334 319 306 295 172
313 311 314 313 300 305 307 299 284 276 262 255 247 250 228 227 234 235 238 243 244 254 264 259 249 261 276 283 291 310 305 302 312 310 313 328 339 341 343 336 332 316 338
315 315 312 309 310 312 307 291 285 272 270 263 254 245 232 227 230 236 229 231 242 243 253 260 262 254 245 270 287 296 304 294 310 306 316 323 337 337 348 351 344 342 337
323 323 315 313 311 307 301 290 281 278 277 269 264 261 245 231 230 231 229 227 236 243 249 257 256 249 243 258 265 278 296 302 298 297 304 316 322 329 328 351 349 349 355
323 325 323 315 316 311 292 283 280 289 279 272 261 258 249 245 234 241 248 253 242 252 262 257 258 261 245 257 260 265 276 289 296 305 309 305 303 313 316 335 343 357 352
324 325 322 319 316 320 315 298 291 286 280 275 273 267 251 238 232 226 230 230 229 233 236 242 247 248 239 232 237 248 262 288 288 305 299 296 290 283 276 312 348 13 358
320 319 312 310 312 318 317 317 310 297 278 270 266 259 251 249 245 234 230 229 234 224 228 226 226 238 245 244 246 278 281 286 300 309 295 279 281 308 313 325 344 354 20
316 318 320 320 316 314 313 313 310 304 285 273 270 255 246 237 228 247 250 227 239 236 237 242 231 218 237 254 255 266 276 282 289 302 281 285 298 289 305 319 332 4 7